SCP
1 0 0 0 0 0 0 0 0 0 0 0 0 0 0 0 0 0 0 0 0 1 1 2 2 2 2 2 2 2 2 1 1 1 1 1 1 1 1 1 1 1 1 1 1 1 1 0 0
0 0 0 0 0 0 0 0 0 0 0 0 0 0 0 0 0 0 0 0 0 1 1 2 2 2 2 2 2 2 2 1 1 1 1 1 1 1 1 1 1 1 1 1 1 1 1 0 0
0 0 0 0 0 0 0 0 0 0 0 0 0 0 0 0 0 0 0 0 1 1 1 2 2 2 2 2 2 2 2 2 1 1 1 1 1 1 1 1 1 1 1 1 1 1 0 0 0
0 0 0 0 0 0 0 0 0 0 0 0 0 0 0 0 0 0 0 1 1 1 1 1 2 2 2 2 2 2 2 2 2 1 1 1 1 1 1 1 1 1 1 1 1 1 0 0 0
0 0 0 0 0 0 0 0 0 0 0 0 0 0 0 0 0 0 1 1 1 1 1 1 2 2 2 1 1 2 2 1 1 1 1 1 1 1 1 1 1 1 1 1 1 1 0 0 0
0 0 0 0 0 0 0 0 0 0 0 0 0 0 0 0 0 0 1 1 1 1 1 1 1 1 1 1 1 1 1 1 1 1 1 1 1 1 1 1 1 1 1 1 1 1 1 0 0
0 0 0 0 0 0 0 0 0 0 0 0 0 0 0 0 0 1 1 1 1 1 1 1 1 1 1 1 1 1 1 1 1 1 1 1 1 1 1 1 1 1 1 1 1 1 1 1 0
0 0 0 0 0 0 0 0 0 0 0 0 0 0 0 0 1 1 1 1 1 2 2 1 1 1 1 1 1 1 1 1 1 1 1 1 1 1 1 1 1 1 1 1 1 1 1 1 0
0 0 0 0 0 0 0 0 0 0 0 0 0 0 0 0 1 1 1 1 1 2 2 1 1 1 1 1 1 1 1 1 1 1 1 1 1 1 1 1 0 1 1 1 1 1 1 0 0
0 0 0 0 0 0 0 0 0 0 0 0 0 0 0 0 1 1 1 1 1 1 1 1 1 1 1 1 1 1 1 1 1 1 1 1 1 1 1 0 0 0 0 0 1 1 0 0 0
0 0 0 0 0 0 0 0 0 0 0 0 0 0 0 0 1 2 2 1 1 1 1 1 1 1 1 1 1 1 1 1 1 1 1 0 0 0 0 0 0 0 0 0 1 1 0 0 0
0 0 0 0 0 0 0 0 0 0 0 0 0 0 0 0 1 2 2 2 1 1 1 1 1 1 1 1 1 1 1 1 1 1 1 0 0 0 0 0 0 0 0 0 1 1 0 0 0
0 0 0 0 0 0 0 0 0 0 0 0 0 0 0 0 1 2 2 2 2 2 2 2 2 1 1 1 1 1 1 1 1 1 0 0 0 0 0 0 0 0 0 0 1 1 0 0 0
0 0 0 0 0 0 0 0 0 0 0 0 0 0 0 0 1 1 2 2 2 2 2 2 2 1 1 1 1 1 1 1 1 1 0 0 0 0 0 0 0 0 0 0 1 0 0 0 0
0 0 0 0 0 0 0 0 0 0 0 0 0 0 0 0 0 1 2 2 2 2 2 2 2 2 1 1 1 1 1 1 0 0 0 0 0 0 0 0 0 0 0 0 0 0 0 0 0
0 0 0 0 0 0 0 0 0 0 0 0 0 0 0 0 0 0 1 1 2 2 2 2 2 2 1 1 1 1 1 0 0 0 0 0 0 0 0 0 0 0 0 0 0 0 0 0 0
0 0 0 0 0 0 0 0 0 0 0 0 0 0 0 0 0 0 0 1 1 2 2 2 2 2 2 1 1 1 1 0 0 0 0 0 0 0 0 0 0 0 0 0 0 0 0 0 0
0 0 0 0 0 0 0 0 0 0 0 0 0 0 0 0 0 0 0 0 1 1 1 2 2 2 2 1 1 1 1 1 0 0 0 0 0 0 0 0 0 0 0 0 0 0 0 0 0
0 0 0 0 0 0 0 0 0 0 0 0 0 0 0 0 0 0 0 0 0 0 1 1 1 2 1 1 1 1 1 1 0 0 0 0 0 0 0 0 0 0 0 0 0 0 0 0 0
0 0 0 0 0 0 0 0 0 0 0 0 0 0 0 0 0 0 0 0 0 0 0 0 1 1 1 1 1 1 1 1 1 0 0 0 0 0 0 0 0 0 0 0 0 0 0 0 0
0 0 0 0 0 0 0 0 0 0 0 0 0 0 0 0 0 0 0 0 0 0 0 0 0 1 1 1 1 1 0 0 0 0 0 0 0 0 0 0 0 0 1 1 1 1 0 0 0
0 0 0 0 0 0 0 0 0 0 0 0 0 0 0 0 0 0 0 0 0 0 0 0 0 0 0 1 1 0 0 0 0 0 0 0 0 0 0 0 0 0 1 1 1 1 1 0 0
0 0 0 0 0 0 0 0 0 0 0 0 0 0 0 0 0 0 1 1 0 0 0 0 0 0 0 0 0 0 0 0 0 0 0 0 0 0 0 0 0 0 1 1 1 1 1 0 0
0 0 0 0 0 0 0 0 0 0 0 0 0 0 0 0 0 0 1 0 0 0 0 0 0 0 0 0 0 0 0 0 0 0 0 0 0 0 0 0 0 0 1 1 1 1 1 1 0
0 0 0 0 0 0 0 0 0 0 0 0 0 0 0 0 0 0 0 0 0 0 0 0 0 0 0 0 0 0 0 0 0 0 0 0 0 0 0 0 0 0 0 1 1 1 1 1 1
0 0 0 0 0 0 0 0 0 0 0 0 0 0 0 0 0 0 0 1 1 1 1 1 1 0 0 0 0 0 0 0 0 0 0 0 0 0 0 0 0 0 0 0 1 1 1 1 1
0 0 0 0 0 0 0 0 0 0 0 0 0 0 0 0 0 0 1 1 1 1 1 1 1 1 1 0 0 0 0 0 0 0 0 0 0 0 0 0 0 0 0 0 0 1 1 1 1
0 0 0 0 0 0 0 0 0 0 0 0 0 0 0 0 0 0 1 1 1 1 1 1 1 1 1 1 0 0 0 0 0 0 0 0 0 0 0 0 0 0 0 0 0 0 1 1 1
0 0 0 0 0 0 0 0 0 0 0 0 0 0 0 0 0 0 1 1 1 1 1 1 2 2 1 1 1 0 0 0 0 0 0 0 0 0 0 0 0 0 0 0 0 0 0 0 0
0 0 0 0 0 0 0 0 0 0 0 0 0 0 0 0 0 0 0 1 1 1 1 2 2 2 2 1 1 0 0 0 0 0 0 0 0 0 0 0 0 0 0 0 0 0 0 0 0
Wind_Speed
7 4 3 4 6 4 3 4 2 1 1 0 1 3 4 3 3 2 1 2 2 3 3 4 5 7 8 9 9 9 9 9 9 9 10 10 10 10 10 10 10 11 12 12 12 12 12 12 12
2 2 5 5 4 1 5 3 2 2 1 1 2 2 3 1 1 1 1 1 2 3 3 3 5 6 8 8 9 9 9 9 9 9 9 9 9 9 9 9 9 10 11 12 12 12 12 12 12
2 4 5 4 3 5 4 2 3 1 1 1 2 2 1 0 1 0 1 1 3 3 3 3 5 6 7 8 9 9 8 8 8 9 9 9 9 8 9 9 9 10 10 11 11 11 11 11 11
3 5 5 3 3 4 4 2 1 0 2 2 2 1 1 2 1 0 1 3 4 3 3 3 5 6 6 7 9 9 9 9 9 9 8 8 8 8 9 9 9 10 10 10 11 11 10 10 10
5 5 3 0 4 3 2 2 1 1 0 1 1 1 0 2 3 3 3 3 4 4 3 3 5 5 6 7 8 8 9 9 9 8 8 8 8 8 8 8 8 9 9 10 10 10 10 10 10
5 4 3 3 4 4 2 1 1 1 1 0 1 1 1 2 3 2 3 3 3 4 3 3 4 5 5 6 8 8 8 8 8 8 8 8 8 7 7 8 8 8 9 9 9 9 9 9 10
5 4 3 3 3 3 3 1 1 1 1 1 1 2 1 1 2 2 3 3 3 4 4 3 2 3 4 5 7 7 7 7 7 8 8 7 7 7 7 7 7 8 8 9 9 9 9 9 9
4 5 2 1 2 4 2 1 1 0 1 1 2 3 2 2 1 3 3 4 4 3 3 3 2 2 2 2 5 6 6 7 7 7 7 7 6 6 6 6 6 7 8 8 8 8 8 9 9
4 4 2 3 3 2 2 2 2 2 2 2 1 0 1 3 3 4 3 3 2 2 2 2 2 2 2 2 3 5 5 6 6 5 6 6 3 3 4 5 6 6 7 7 7 8 8 8 8
4 3 5 2 2 1 1 1 2 2 3 2 2 3 4 4 4 3 2 2 1 1 0 1 1 2 2 2 2 2 2 3 3 3 3 3 3 3 4 6 6 6 7 7 7 8 7 6 4
2 3 2 1 1 1 0 1 2 1 2 3 3 2 2 3 3 2 1 1 2 2 1 1 1 2 2 2 1 1 1 2 2 3 3 3 3 3 3 2 3 4 5 4 5 5 3 3 3
2 0 1 1 0 0 1 0 1 0 4 2 2 2 4 3 2 2 2 1 1 1 1 1 1 2 2 2 1 1 1 1 2 2 2 2 2 2 2 2 2 2 2 3 2 2 3 3 3
1 1 0 1 0 0 1 1 2 4 4 1 2 3 3 2 1 1 1 0 0 1 1 1 1 2 2 2 1 1 1 1 2 2 1 2 2 2 2 1 2 2 2 2 2 2 3 3 3
1 0 1 2 1 0 0 2 1 7 1 1 1 1 1 2 2 1 0 1 1 1 1 1 1 2 2 2 2 1 1 1 2 1 2 2 2 2 2 2 2 1 1 1 2 3 2 2 2
0 2 3 2 1 1 0 4 5 6 1 0 1 1 0 1 1 2 3 2 2 2 1 0 1 1 2 2 2 2 1 2 1 1 1 2 2 2 2 2 2 1 1 2 2 3 2 2 2
2 2 2 3 1 1 2 7 6 1 2 2 2 2 1 2 2 3 2 2 1 1 1 1 1 1 1 1 2 2 2 2 1 1 1 2 2 2 2 2 1 1 2 2 2 2 2 2 2
2 1 2 3 1 1 2 7 5 0 1 3 3 3 2 3 3 3 2 2 1 1 1 1 1 1 1 1 1 2 2 2 1 1 1 1 2 2 2 1 1 2 2 2 2 2 2 2 1
3 3 2 3 1 1 3 8 7 2 3 4 4 4 3 4 5 3 2 1 1 0 1 1 1 1 1 1 2 2 2 2 2 1 1 1 1 2 2 2 1 2 2 2 2 2 2 1 1
2 2 3 4 1 1 5 9 10 5 4 5 5 5 5 5 4 2 1 1 1 1 1 1 2 1 2 1 1 1 1 1 2 2 2 2 2 2 2 2 2 1 1 2 2 2 2 1 1
2 2 4 4 1 2 5 9 7 5 4 5 6 5 5 4 3 2 1 1 0 0 0 1 1 1 2 1 1 1 2 1 1 1 2 2 2 2 1 2 1 1 1 1 2 2 2 1 1
4 5 5 4 3 2 4 8 4 3 2 2 3 4 4 4 4 3 1 1 1 1 1 1 1 2 1 1 2 2 2 2 1 1 1 1 2 2 2 1 1 1 1 2 2 2 2 2 1
6 4 3 2 1 3 1 7 6 4 4 4 4 4 4 4 3 3 2 2 2 2 1 1 1 1 1 2 3 3 2 1 1 0 0 1 1 1 1 1 1 1 1 1 1 2 1 2 2
4 1 2 2 2 3 1 3 9 2 4 5 5 5 5 3 3 3 3 3 2 1 1 1 1 2 2 2 2 2 1 1 1 1 1 1 1 1 1 1 1 0 0 1 1 1 1 1 2
2 2 2 2 2 4 4 4 10 4 6 5 4 4 4 3 2 2 1 1 0 1 1 1 2 1 1 2 2 2 2 2 2 1 1 0 1 1 1 1 0 0 0 0 0 1 1 1 1
2 3 2 4 2 7 2 4 11 6 4 4 5 5 4 3 2 2 1 1 1 1 1 1 2 1 1 1 2 1 2 2 2 1 1 0 0 1 1 1 0 0 0 0 1 1 1 2 2
4 5 6 5 5 5 2 8 9 4 3 3 4 4 3 2 2 2 2 2 2 2 1 1 1 1 1 1 1 1 1 1 1 1 1 1 0 1 0 0 0 0 0 0 0 1 1 1 2
5 4 3 4 1 3 6 7 9 2 2 2 2 2 3 3 2 2 2 2 2 2 2 2 2 1 1 1 1 1 1 1 1 1 1 0 0 0 0 0 0 0 0 0 0 0 1 1 1
3 5 4 4 3 5 7 6 7 5 5 3 2 3 3 2 2 2 2 2 2 2 2 2 2 2 2 1 1 1 1 1 1 1 1 0 0 0 0 0 0 0 0 0 0 0 0 0 1
4 4 4 4 4 5 5 9 6 7 6 5 5 4 3 3 2 2 2 2 2 1 2 2 2 2 2 2 1 1 1 1 1 1 1 0 0 0 0 0 0 0 0 0 0 0 1 1 1
5 7 8 6 6 5 5 10 3 5 5 5 5 4 3 3 3 2 2 1 1 2 2 2 2 2 2 2 2 2 1 1 1 1 1 1 1 1 1 1 1 1 1 1 1 1 1 2 2
Wind_Direction
348 356 49 53 58 55 243 249 230 230 209 205 129 129 140 151 163 195 339 46 73 127 136 143 134 128 125 122 119 116 113 109 106 104 102 101 99 97 96 96 93 94 92 89 88 85 85 84 84
341 19 51 59 96 174 258 246 225 226 192 103 67 82 97 109 45 48 6 358 82 115 117 130 126 130 129 128 123 118 115 111 109 108 104 101 99 99 100 99 97 96 94 92 90 88 86 85 84
14 50 77 79 138 190 225 235 219 293 41 83 77 47 102 107 39 296 313 58 83 98 100 119 118 124 127 130 125 120 116 114 112 108 106 102 99 99 101 102 101 97 95 94 93 90 87 86 85
62 47 57 82 215 224 227 257 179 137 18 41 108 64 5 17 21 91 80 87 93 94 88 104 116 122 122 127 128 123 119 114 112 108 104 104 103 102 103 101 103 101 98 95 94 92 89 88 85
58 74 68 322 246 252 256 264 173 136 347 2 109 126 300 22 47 73 87 89 107 102 79 89 102 114 119 122 125 126 125 120 114 110 105 102 103 101 100 99 103 103 101 98 94 93 91 89 86
62 73 108 229 252 272 281 276 148 113 202 44 115 134 243 53 49 56 76 83 100 107 88 82 91 93 108 122 119 119 122 121 118 115 110 104 99 97 96 95 101 103 102 100 97 93 89 90 88
105 107 165 211 248 277 288 319 163 173 156 224 169 144 263 13 18 47 70 74 78 90 88 78 79 86 97 114 113 112 110 115 115 114 109 102 96 92 88 84 94 104 104 102 100 94 89 90 87
119 111 141 214 226 264 315 347 10 167 196 12 104 149 247 288 55 65 72 73 74 77 80 81 73 75 80 100 107 105 103 103 107 109 105 100 93 85 86 79 84 97 100 100 101 96 92 89 84
95 93 201 217 206 259 339 1 346 12 68 35 37 29 323 95 94 81 75 66 66 64 68 86 85 78 79 82 97 102 100 99 97 98 101 95 83 81 81 78 80 92 94 97 99 98 92 85 78
91 162 220 215 182 192 7 348 315 20 27 5 350 4 54 86 95 102 109 136 146 178 155 110 106 106 101 93 87 85 90 94 85 80 84 83 86 85 85 84 80 81 84 87 90 89 84 79 68
115 184 207 244 235 178 80 12 1 145 276 244 245 255 99 93 102 121 161 189 207 204 196 162 155 136 120 111 102 90 94 91 83 84 87 88 82 79 73 75 67 67 70 67 72 74 69 71 68
120 280 164 245 347 153 202 269 346 239 249 285 239 154 127 134 163 192 208 241 292 206 209 197 167 152 139 127 119 119 124 108 102 92 97 102 97 87 83 83 79 78 83 86 77 84 84 78 69
169 262 283 255 21 131 99 257 274 278 284 330 70 100 130 158 203 226 221 298 310 252 243 222 180 161 150 135 128 126 136 125 117 105 98 104 111 113 104 97 90 87 95 105 102 99 97 88 75
174 120 341 324 261 278 125 299 283 273 294 69 98 194 170 191 228 269 328 288 276 272 258 225 189 178 155 150 148 152 139 126 122 120 118 115 117 121 120 112 104 98 106 122 119 113 107 99 90
88 13 352 341 291 281 209 309 248 259 147 117 254 256 264 273 278 252 238 233 240 255 273 234 210 172 160 162 154 144 142 132 134 136 126 120 123 133 133 128 125 125 118 116 108 100 95 93 85
48 42 330 323 358 306 144 269 278 259 152 244 262 269 277 284 272 271 277 260 249 247 241 204 141 127 151 148 146 140 132 126 128 128 121 120 123 126 130 131 141 133 119 114 115 113 103 101 94
32 318 266 302 0 102 179 257 285 54 179 261 264 257 264 291 295 285 285 276 263 225 197 176 137 127 149 123 112 115 113 105 100 90 90 109 115 116 123 130 136 127 122 116 120 110 121 129 116
223 228 251 253 288 109 230 261 283 280 230 252 262 260 255 265 269 278 285 291 308 8 135 142 118 96 92 92 80 81 75 72 69 63 48 81 96 101 110 110 108 120 122 120 124 125 104 127 126
163 194 252 259 248 208 250 268 281 279 252 253 254 249 250 256 274 292 297 327 37 46 89 120 108 101 99 112 144 145 125 64 53 49 48 62 72 88 102 100 99 98 136 153 147 132 119 96 100
205 247 267 287 296 229 275 278 277 267 250 241 243 246 249 259 282 293 317 3 32 247 167 129 140 141 145 152 176 161 150 129 104 51 49 58 66 69 99 105 119 118 120 113 132 126 134 109 102
231 227 239 258 322 325 315 298 280 280 265 279 261 250 249 237 244 257 257 256 253 249 226 176 167 158 144 105 96 83 76 68 59 36 33 43 74 76 69 97 126 140 143 167 177 162 153 164 181
244 226 223 236 301 300 23 296 285 278 291 285 269 259 251 249 243 235 228 240 232 241 238 149 138 128 126 126 123 121 127 148 204 203 54 45 80 90 81 92 99 151 171 180 195 174 175 162 177
223 193 190 204 205 284 266 254 285 304 284 279 269 258 253 252 246 245 236 227 219 204 185 153 121 107 112 123 131 139 122 133 79 63 73 60 49 58 54 71 106 128 142 178 185 182 179 183 177
175 86 74 68 91 274 233 206 278 244 238 258 260 261 254 254 247 251 263 238 152 119 120 117 120 114 113 123 122 134 133 116 104 79 101 57 34 34 31 33 74 134 167 172 205 203 193 199 180
119 112 19 349 340 254 218 212 255 253 238 228 245 258 257 248 242 245 241 222 205 176 161 141 136 143 141 139 133 144 157 154 162 167 162 116 12 348 317 347 327 291 281 200 190 183 204 199 191
193 166 172 207 237 280 269 236 255 257 266 256 252 260 273 262 242 238 229 215 210 198 184 175 175 181 174 160 151 131 138 152 175 156 128 175 224 286 318 325 316 311 307 242 194 186 210 199 213
163 194 188 143 89 283 267 277 296 260 282 274 271 275 277 271 262 247 238 219 209 202 201 198 196 196 192 178 151 138 141 133 139 123 105 145 12 343 9 0 6 356 11 58 142 210 219 195 225
172 153 126 153 193 257 279 264 251 244 239 250 257 256 269 284 283 269 231 221 215 209 204 185 185 195 197 185 189 190 175 154 128 123 133 183 212 88 65 339 336 5 11 338 159 213 233 191 235
164 169 164 161 177 192 259 264 228 217 216 226 240 246 245 252 258 257 248 225 210 194 189 191 193 185 183 186 187 177 180 163 139 150 189 206 197 145 183 237 268 287 292 297 238 260 209 215 245
198 194 174 182 217 207 230 264 251 215 221 221 238 245 238 241 248 250 249 238 215 211 209 205 205 201 203 197 187 186 171 161 162 187 207 191 209 194 195 196 202 240 253 245 228 239 235 221 235